SKYSAT-2 (40072 NORAD) Tracking and Keplerian Element Data

This shows tracking and keplerian element data for the satellite.

Feedback or suggestion? Click here.




ElementValue
Catalog40072
NameSKYSAT-2
Epoch Orbit25901
Epoch Day113.98980153
Epoch Year2019
RAAN264.9997
Inclination98.4155
Eccentricity0.0007709
Argument of Perigee45.2401
Mean Anonmoly314.9635
Mean Motion14.81172842
Decay Rate1.164E-05
L11 40072U 14037D 19113.98980153 .00001164 00000-0 15705-3 0 9999
L22 40072 98.4155 264.9997 0007709 45.2401 314.9635 14.81172842259018

Live tracking and technical data element details for SKYSAT-2 (NORAD 40072). SKYSAT-2 can be tracked NOW for your location showing map with azimuth and elevation plus other details from your city location.

Track the satellite on the map from your city or location and see movement details for azimuth, elevation, latitude, longitude, range, height, and movement on the map or in text.







IsCatalogInMostPopularTable: catalog: 40072, numindb: 194
Update: records affected: 1



GetName: 40072 SKYSAT-2

Hit Count: updated at: Wed, 24 Apr 2019 18:49:00 GMT